Regional Weather Roundup
Issued by NWS

Home | Current Version | Previous Version | Text Only | Print | Product List | Glossary On
Versions: 1 2 3 4 5 6 7 8 9 10 11 12 13 14 15 16 17 18 19 20 21 22 23 24 25 26 27 28 29 30 31 32 33 34 35 36 37 38 39 40 41 42 43 44 45 46 47 48 49 50
000
ASUS46 KLOX 292112
RWRCA

SOUTHERN CALIFORNIA WEATHER ROUNDUP
NATIONAL WEATHER SERVICE OXNARD CALIFORNIA
200 PM PDT TUE JUL 29 2014

NOTE: "FAIR" INDICATES FEW OR NO CLOUDS BELOW 12,000 FEET WITH NO
SIGNIFICANT WEATHER AND/OR OBSTRUCTIONS TO VISIBILITY.

  -  STATIONS PRECEEDED BY AN ASTERISK (*) ARE NOT NWS OR FAA
     STATIONS AND ARE NOT SUBJECT TO NWS AND FAA QUALITY CONTROL.

CAZ041-042-087-292200-
LA AND ORANGE COUNTY COASTAL AREAS


CITY           SKY/WX    TMP DP  RH WIND       PRES   REMARKS
L.A. DOWNTOWN  SUNNY     83  63  50 VRB3      29.97F
L.A. AIRPORT   PTSUNNY   75  63  66 W12       30.00F
LONG BEACH     MOSUNNY   83  59  44 S8        29.98F

CITY           SKY/WX    TMP DP  RH WIND       PRES   REMARKS
AVALON           N/A     73 N/A N/A MISG        N/A
FULLERTON      PTSUNNY   86  60  41 VRB7      29.97F
*GETTY CENTER    N/A     82  46  28 S8          N/A
HAWTHORNE      MOSUNNY   80  62  54 W7        29.99F
*LEO CARRILLO    N/A     74  62  66 W14         N/A
*LOS ALAMITOS  CLOUDY    82  60  47 S8        29.98F
*REDONDO BEACH   N/A     75  65  71 W3        29.99F
SANTA ANA      PTSUNNY   83  55  38 VRB5      29.98F
STA MONICA APT SUNNY     76  62  62 SW8       30.00F
TORRANCE       MOSUNNY   81  66  61 W17       29.99F
*UCLA            N/A     79  57  47 S6        29.96F

$$

CAZ547-548-048-292200-
LA COUNTY VALLEYS AND INLAND EMPIRE


CITY           SKY/WX    TMP DP  RH WIND       PRES   REMARKS
BURBANK        SUNNY     90  54  29 S10       29.98F
VAN NUYS       SUNNY     94  54  25 SE9       29.97F HX  92

CITY           SKY/WX    TMP DP  RH WIND       PRES   REMARKS
CORONA AIRPORT MOCLDY    92  54  27 NW12      29.97F HX  90
CHINO          PTSUNNY   92  55  28 W9        29.98F HX  90
MARCH AFB      PTSUNNY   94  48  20 NW10      30.01F HX  91
*NORTHRIDGE      N/A     95  50  21 E5G12       N/A  HX  92
ONTARIO        CLOUDY    95  49  20 W10       29.98F HX  92
*PASADENA        N/A     91  59  33 CALM        N/A  HX  90
RIVERSIDE      PTSUNNY   94  50  22 VRB7      29.98F HX  91
SAN BERNARDINO PTSUNNY   93  41  16 SW5       29.99F
*SAN RAFAEL HI   N/A     93  57  29 NE6         N/A  HX  91
*SAUGUS          N/A     97  48  18 S10G22      N/A  HX  93
*WHITEMAN AP   PTSUNNY   90  54  29 SE5       30.03F
*WHITTIER HILL   N/A     88  61  39 S8          N/A
*WOODLAND HILL   N/A     99  54  22 NE5         N/A  HX  96

$$

CAZ054-055-292200-
LA AND SAN BERNARDINO COUNTY MOUNTAINS


CITY           SKY/WX    TMP DP  RH WIND       PRES   REMARKS
*BIG BEAR AIRP PTCLDY    75  41  29 W9G17     30.38F
*CHILAO          N/A     90  41  18 SW3         N/A
MT WILSON NWS    N/A     86  45  23 MISG        N/A
SANDBERG       MOSUNNY   93  43  17 N8G21     30.24F
*WARM SPRINGS    N/A     93  46  19 S5          N/A

$$

CAZ028-029-059-060-099-292200-
ANTELOPE VALLEY AND SURROUNDING AREAS


CITY           SKY/WX    TMP DP  RH WIND       PRES   REMARKS
LANCASTER      SUNNY     97  39  13 VRB5      30.04F HX  92
PALMDALE       SUNNY     97  39  13 W9        30.06F HX  92
*POPPY PARK      N/A     98  42  14 W12         N/A  HX  94

CITY           SKY/WX    TMP DP  RH WIND       PRES   REMARKS
29 PALMS       PTSUNNY   99  46  16 VRB6      30.06F HX  95
BARSTOW/DAGGET NOT AVBL
BISHOP         PTSUNNY   91  45  20 NE7       30.15F
CHINA LAKE     PTSUNNY   99  49  18 N8        30.02F HX  96
EDWARDS AFB    PTSUNNY   98  40  13 NW6       30.03F HX  93
MOJAVE         FAIR      97  39  13 W23       30.07F HX  92
NEEDLES        MOSUNNY  107  55  18 VRB3      29.88F HX 106
VICTORVILLE    MOSUNNY   93  37  14 N3G16     30.09F

$$

CAZ039-040-292200-
VENTURA AND SANTA BARBARA COUNTY COAST


CITY           SKY/WX    TMP DP  RH WIND       PRES   REMARKS
CAMARILLO      MOSUNNY   81  59  47 W8        29.98F
NWS OXNARD       N/A     78  62  58 W6        29.98F
OXNARD AIRPORT MOSUNNY   73  62  68 W14       29.99F
*POINT MUGU    PTSUNNY   80  63  55 W13       29.99F
SBA APT/GOLETA PTSUNNY   77  59  53 W13       30.00F
*SANTA BARBARA   N/A     86  58  39 N3        30.06F
*VENTURA         N/A     79  60  51 SW7       30.02S

$$

CAZ044-045-292200-
VENTURA COUNTY VALLEYS


CITY           SKY/WX    TMP DP  RH WIND       PRES   REMARKS
*SIMI VALLEY     N/A     91  57  31 W12       29.92F HX  90
*OJAI            N/A     97  60  29 W3        29.89F HX  97
*FILLMORE        N/A     94  61  33 SW8       29.86F HX  94

$$

CAZ053-292200-
VENTURA COUNTY MOUNTAINS


CITY           SKY/WX    TMP DP  RH WIND       PRES   REMARKS
*LOCKWOOD VLY    N/A     82  41  23 MISG        N/A
*ROSE VALLEY     N/A     91  52  25 MISG        N/A

$$

CAZ034-035-036-292200-
CENTRAL COAST AND SANTA YNEZ VALLEY


CITY           SKY/WX    TMP DP  RH WIND       PRES   REMARKS
SAN LUIS OBISP MOSUNNY   76  59  55 NW18      30.02F
SANTA MARIA    PTSUNNY   75  60  59 NW12      30.05S

CITY           SKY/WX    TMP DP  RH WIND       PRES   REMARKS
*CAL POLY SLO    N/A     81  63  54 S8          N/A
*LOMPOC          N/A     73  61  64 MISG      30.05S
*PISMO BEACH     N/A     66  62  88 W10       30.05F

$$

CAZ037-038-051-292200-
SAN LUIS OBISPO COUNTY INTERIOR AND CUYAMA VALLEY


CITY           SKY/WX    TMP DP  RH WIND       PRES   REMARKS
*CUYAMA          N/A     95  43  16 NE8       29.91F HX  90
PASO ROBLES    SUNNY    100  42  13 VRB3      29.98F HX  95

$$

CAZ032-033-061-292200-
SOUTHERN DESERTS


CITY           SKY/WX    TMP DP  RH WIND       PRES   REMARKS
BLYTHE           N/A    N/A N/A N/A MISG      29.85F
IMPERIAL       PTSUNNY  109  53  15 VRB6      29.83F HX 107
PALM SPRINGS   MOSUNNY  109  47  12 N16       29.87F HX 105
THERMAL        MOSUNNY  110  54  15 VRB5      29.80F HX 108

$$

ELSEWHERE ACROSS THE WESTERN UNITED STATES AND MEXICO


CITY           SKY/WX    TMP DP  RH WIND       PRES   REMARKS
DENVER, CO     TSTM      66  58  75 SE18G25   30.19F
GRAND CANYON,  PTSUNNY   80  51  36 NW8G18    30.33F
HONOLULU, HI   MOSUNNY   86  64  48 NE14      30.04F
KAHULUI, MAUI  MOSUNNY   86  66  51 NE18G25   30.04F
LAKE TAHOE, CA MOSUNNY   84  37  18 VRB6      30.33F
LAS VEGAS, NV  PTSUNNY   97  53  22 SW13G18   29.95F HX  94
MAMMOTH LAKES, PTSUNNY   77  41  27 N6        30.38F
MEXICO CITY, M MOSUNNY   73  48  40 E7        30.33F
PHOENIX, AZ    PTSUNNY  107  57  19 SW15      29.88F HX 107
PORTLAND, OR   MOSUNNY   83  58  42 W8        30.05F
RENO, NV       PTSUNNY   91  37  15 N12G18    30.18F
SALT LAKE CITY LGT RAIN  67  64  90 S5        30.18F
SAN DIEGO, CA  PTSUNNY   84  54  35 W13       29.99F
SAN FRANCISCO, MOSUNNY   72  57  59 W21       30.02F
SAN JOSE, CA   MOSUNNY   81  59  47 NW12      30.00F
SEATTLE, WA    SUNNY     83  52  34 N9        30.13F
TIJUANA, MEX   PTSUNNY   86  52  30 W14       30.00F

$$

STATION/POSITION TIME  TEMP    WIND        PRES    VSBY  WAVE
                       AIR SEA DIR/SP/G                  HT/PER
                 (UTC) (F)     (DEG/KT/KT) (MB)    (MI)  (FT/S)
POINT ARGUELLO B NOT AVBL
WEST SANTA BARBA 2100   63 63  300/ 17/ 21 1016.0F         4/ 8
POINT CONCEPTION NOT AVBL
EAST SANTA BARBA 2000   63     280/ 12       N/A
SANTA MONICA BAY 2100   67 69  290/  8/ 10 1015.5F         2/13


USA.gov is the U.S. government's official web portal to all federal, state and local government web resources and services.